Location: Asheville, NC
(35.6000°N, 82.5500°W)
Time: 00:09:25
(UTC-04:00)

LilacSat-2 - Pass Details

Date: 12 March 2018
Orbit: 514 x 537 km, 97.5° (Epoch: 22 June)

Event Time Altitude Azimuth Distance (km) Brightness Sun altitude
Rises 06:36:24 0° 31° (NNE) 2,674 ? -14.8°
Reaches altitude 10° 06:39:05 10° 51° (NE) 1,783 ? -14.3°
Maximum altitude 06:41:43 18° 94° (E) 1,366 ? -13.7°
Drops below altitude 10° 06:44:21 10° 138° (SE) 1,781 ? -13.2°
Sets 06:47:01 0° 158° (SSE) 2,668 ? -12.6°
